Regional Weather Roundup
Issued by NWS

Home | Current Version | Previous Version | Graphics & Text | Print | Product List | Glossary On
Versions: 1 2 3 4 5 6 7 8 9 10 11 12 13 14 15 16 17 18 19 20 21 22 23 24 25 26 27 28 29 30 31 32 33 34 35 36 37 38 39 40 41 42 43 44 45 46 47 48 49 50
000
ASUS44 KMEG 031000
RWRTN
TENNESSEE HOURLY STATE WEATHER ROUNDUP
NATIONAL WEATHER SERVICE MEMPHIS TN
500 AM CDT WED JUN 03 2015

TNZ002-004-019-021-049-052-054-088>092-031100-
WEST TENNESSEE

CITY           SKY/WX    TMP DP  RH WIND       PRES   REMARKS
MEMPHIS INTL   PTCLDY    63  59  87 N3        30.01R
NWS MEMPHIS      N/A     57 N/A N/A MISG        N/A
JACKSON        CLOUDY    59  57  93 CALM      30.01S
DYERSBURG      PTCLDY    63  48  59 E6        30.02S
PARIS          CLOUDY    59  57  94 NE3       30.03R
LEXINGTON      CLOUDY    61  59  94 CALM      30.00S
$$

TNZ008-025-027-028-033-062-065-066-031100-
NORTH MIDDLE TENNESSEE

CITY           SKY/WX    TMP DP  RH WIND       PRES   REMARKS
NASHVILLE      PTCLDY    59  57  93 N5        30.02S
CLARKSVILLE    PTCLDY    58  56  93 NE5       30.03R
COOKEVILLE     CLOUDY    57  57 100 CALM      30.01R
CROSSVILLE     CLOUDY    58  56  93 NE6       30.03S FOG
$$

TNZ061-075-076-078-094-096-097-031100-
SOUTH MIDDLE TENNESSEE

CITY           SKY/WX    TMP DP  RH WIND       PRES   REMARKS
FAYETTEVILLE   CLOUDY   N/A N/A N/A MISG      29.99S
TULLAHOMA      CLOUDY    61  57  88 N5        30.00F
WINCHESTER     MOCLDY    61  61 100 CALM      30.00R
MCMINNVILLE    CLOUDY    61  61 100 NE5       30.01S
COLUMBIA       CLOUDY    63  61  94 NE3       29.99R
SHELBYVILLE    CLOUDY    63  61  94 N3        30.01S
$$

TNZ017-018-042-046-047-031100-
NORTHEAST TENNESSEE

CITY           SKY/WX    TMP DP  RH WIND       PRES   REMARKS
TRI CITIES     CLOUDY    60  58  92 CALM      30.02S
ELIZABETHTON   SUNNY     54  54 100 CALM      30.02F
$$

TNZ012-013-036-069-073-074-031100-
CENTRAL EAST TENNESSEE

CITY           SKY/WX    TMP DP  RH WIND       PRES   REMARKS
KNOXVILLE      CLOUDY    62  60  93 E3        29.99S
OAK RIDGE      MOCLDY    63  58  83 CALM      30.01S
GATLINBURG     CLOUDY    57  55  94 CALM      30.00R VSB 3/4
$$

TNZ083-085-099-031100-
SOUTHEAST TENNESSEE

CITY           SKY/WX    TMP DP  RH WIND       PRES   REMARKS
CHATTANOOGA    CLOUDY    64  61  90 NE3       29.99R
$$

SKY/WX REPORTED AS FAIR MEANS FEW OR NO CLOUDS BELOW
12 THOUSAND FEET.




USA.gov is the U.S. government's official web portal to all federal, state and local government web resources and services.